Regional Weather Roundup
Issued by NWS

Home | Current Version | Previous Version | Text Only | Print | Product List | Glossary On
Versions: 1 2 3 4 5 6 7 8 9 10 11 12 13 14 15 16 17 18 19 20 21 22 23 24 25 26 27 28 29 30 31 32 33 34 35 36 37 38 39 40 41 42 43 44 45 46 47 48 49 50
090
ASUS46 KPQR 061210
RWROR

OREGON REGIONAL WEATHER ROUNDUP
NATIONAL WEATHER SERVICE PORTLAND OR
400 AM PST SAT FEB 06 2016

NOTE: "FAIR" INDICATES FEW OR NO CLOUDS BELOW 12,000 FEET WITH
NO SIGNIFICANT WEATHER AND/OR OBSTRUCTIONS TO VISIBILITY.

ORZ001>013-061300-
NORTHWEST OREGON


CITY           SKY/WX    TMP DP  RH WIND       PRES   REMARKS
ASTORIA        PTCLDY    47  40  76 SW8       30.39R
6HR MIN TEMP:  47; 6HR MAX TEMP:  50; 6HR PCP: TRACE;

NEWPORT        PTCLDY    41  41 100 SE3       30.42R
PORTLAND       CLOUDY    46  41  82 S7        30.44R
6HR MIN TEMP:  46; 6HR MAX TEMP:  48;

VANCOUVER WA   CLOUDY    45  41  86 E3        30.43R
6HR MIN TEMP:  45; 6HR MAX TEMP:  48;

SCAPPOOSE      MOCLDY    37  37 100 W3        30.43R
6HR MIN TEMP:  36; 6HR MAX TEMP:  43; 6HR PCP:  0.01;

HILLSBORO      MOCLDY    39  38  96 CALM      30.43R
6HR MIN TEMP:  39; 6HR MAX TEMP:  46;

AURORA         MOCLDY    42  42 100 S3        30.44R
6HR MIN TEMP:  42; 6HR MAX TEMP:  47;

MCMINNVILLE    PTCLDY    39  38  96 NW3       30.44R
6HR MIN TEMP:  38; 6HR MAX TEMP:  47;

SALEM          PTCLDY    41  39  93 SE3       30.43R FOG
6HR MIN TEMP:  39; 6HR MAX TEMP:  48;

CORVALLIS      CLOUDY    39  36  87 CALM      30.44R VSB 1/4
EUGENE         FOG       41  40  96 NW3       30.43S VSB 1/2
$$

ORZ021-028-061300-
SOUTHWEST OREGON


CITY           SKY/WX    TMP DP  RH WIND       PRES   REMARKS
NORTH BEND     CLOUDY    46  46 100 SE3       30.42F
6HR MIN TEMP:  46; 6HR MAX TEMP:  48;

BROOKINGS      CLOUDY    50  48  93 CALM      30.40F
ROSEBURG       CLOUDY    48  46  93 CALM      30.41F
6HR MIN TEMP:  48; 6HR MAX TEMP:  50; 6HR PCP:  0.03;

SEXTON SUMMIT  FOG       40  40 100 S10       30.36S VSB 1/4 WCI  33
6HR MIN TEMP:  39; 6HR MAX TEMP:  41; 6HR PCP:  0.30;

MEDFORD        CLOUDY    45  41  86 CALM      30.40S
6HR MIN TEMP:  44; 6HR MAX TEMP:  49; 6HR PCP: TRACE;

$$

ORZ014>016-041-061300-
COLUMBIA GORGE


CITY           SKY/WX    TMP DP  RH WIND       PRES   REMARKS
TROUTDALE      CLOUDY    47  40  76 CALM      30.44R
6HR MIN TEMP:  47; 6HR MAX TEMP:  50;

THE DALLES     CLOUDY    46  35  65 W13       30.35S
6HR MIN TEMP:  43; 6HR MAX TEMP:  51;

$$

ORZ029>031-041-044-049-050-061>064-502-503-505>511-061300-
EASTERN OREGON


CITY           SKY/WX    TMP DP  RH WIND       PRES   REMARKS
REDMOND        PTCLDY    32  30  92 NE3       30.31R
6HR MIN TEMP:  32; 6HR MAX TEMP:  49;

BEND           PTCLDY    43  34  70 S10G17    30.32R
PRINEVILLE     PTCLDY    32  30  93 CALM      30.32S
KLAMATH FALLS  PTCLDY    30  27  88 E3        30.40S
6HR MIN TEMP:  30; 6HR MAX TEMP:  39; 6HR PCP: TRACE;

LAKEVIEW       CLOUDY    32  27  80 S8        30.43F WCI  25
HERMISTON      MOCLDY    41  33  73 S9        30.33R
6HR MIN TEMP:  40; 6HR MAX TEMP:  49;

PENDLETON      MOCLDY    41  33  73 SW8       30.31R
6HR MIN TEMP:  41; 6HR MAX TEMP:  54;

JOHN DAY       MOCLDY    46  30  55 SW16G22   30.31S
MEACHAM        CLOUDY    34  31  88 CALM      30.28S
6HR MIN TEMP:  33; 6HR MAX TEMP:  39;

LA GRANDE      MOCLDY    39  27  60 SW14G20   30.30R WCI  31
6HR MIN TEMP:  39; 6HR MAX TEMP:  41;

BAKER CITY     PTCLDY    32  27  81 E3        30.34F
6HR MIN TEMP:  30; 6HR MAX TEMP:  35;

BURNS          CLOUDY    25  21  85 SW5       30.37F WCI  19
6HR MIN TEMP:  18; 6HR MAX TEMP:  26;

ROME             N/A     36  27  69 CALM      30.39R
6HR MIN TEMP:  31; 6HR MAX TEMP:  37;

ONTARIO        CLOUDY    32  30  92 CALM      30.47S FOG
6HR MIN TEMP:  32; 6HR MAX TEMP:  33;

$$




USA.gov is the U.S. government's official web portal to all federal, state and local government web resources and services.